< < Back
Terminal Aerodrome Forecast


Current Version              Previous Versions:   1  2  3  4  5  6  7  8  9  

Terminal Aerodrome Forecast

545
FTUS42 KFFC 302335
TAFFTY
TAF
KFTY 302335Z 3100/3124 08007KT P6SM SCT050
     FM310600 08005KT P6SM SCT120
     FM311400 06009KT P6SM FEW040 SCT120
     FM311700 07009KT P6SM SCT050=



Latest METAR

248
SAUS70 KWBC 310000 RRI
MTRFTY
METAR KFTY 302353Z 06006KT 10SM CLR 29/19 A2999 RMK AO2 SLP147 T02940189
10328 20294 56006


USA.gov is the U.S. government's official web portal to all federal, state and local government web resources and services.